Location: ??????
(42.0089°N, 44.3281°E)
Time: 17:19:59
(UTC+00:00)

USA 267 - Pass Details

Date: 31 May 2022
Orbit: 1101 x 1106 km, 123.0° (Epoch: 28 June)

Event Time Altitude Azimuth Distance (km) Brightness Sun altitude
Rises 18:49:26 0° 68° (ENE) 3,920 6.1 -19.2°
Reaches altitude 10° 18:52:24 10° 56° (NE) 2,963 5.6 -19.5°
Maximum altitude 18:57:23 24° 6° (N) 2,103 5.3 -20.0°
Drops below altitude 10° 19:02:23 10° 315° (NW) 2,966 6.6 -20.4°
Sets 19:05:21 0° 303° (WNW) 3,925 7.2 -20.7°
